Wind_Speed
42 40 39 38 40 39 40 42 43 41 41 41 39 36 35 31 28 27 26 25 23 23 22 27 30 31 35 33 24 21 18 11 13 9 21 17 15 15 15 14 13 13 11
41 39 39 39 39 38 38 43 43 42 42 41 40 38 36 33 31 29 28 26 26 25 25 29 31 34 34 34 24 21 25 13 22 21 20 16 15 13 14 14 13 11 9
41 38 37 37 38 39 38 42 43 42 42 42 42 40 39 36 33 31 30 28 28 27 28 32 35 36 34 30 22 24 22 17 22 22 18 19 16 13 13 12 12 11 11
41 38 36 36 38 39 38 40 41 42 42 42 43 41 40 38 35 32 31 30 29 28 29 32 36 36 33 30 25 23 20 20 18 22 20 20 17 14 13 12 11 11 10
38 35 36 35 36 36 36 38 40 40 42 43 42 41 40 39 37 35 33 33 32 30 30 33 33 36 31 28 28 24 21 23 21 21 21 19 19 16 15 13 12 10 8
34 31 33 32 34 35 36 37 38 38 39 41 40 41 41 39 38 35 35 34 34 34 34 32 33 34 30 26 21 22 20 26 24 20 18 21 20 18 19 16 11 7 4
29 28 31 34 34 36 36 37 36 36 38 39 40 41 40 39 37 36 35 35 36 36 37 34 33 32 30 27 21 17 17 20 19 26 26 22 22 25 21 18 15 12 6
26 27 30 31 32 34 35 35 35 36 38 38 38 40 40 40 37 36 35 35 35 36 37 38 35 33 31 27 22 21 19 16 15 17 15 15 13 18 19 16 15 13 9
22 26 30 33 31 32 33 33 33 34 33 34 37 39 40 40 37 36 35 34 34 34 35 35 36 34 33 30 26 25 21 17 14 14 13 14 13 11 17 16 17 14 8
19 24 28 31 32 32 33 33 33 34 33 32 35 39 40 40 37 37 37 36 34 33 31 30 32 34 34 33 30 29 26 22 20 19 17 16 15 13 14 15 13 16 6
23 27 28 29 30 32 32 32 32 31 31 31 33 36 39 39 39 37 37 37 37 36 33 31 31 31 34 33 31 30 27 25 21 20 19 17 16 14 14 15 13 12 12
23 27 29 30 28 29 31 30 31 31 30 28 30 32 36 36 38 38 37 36 37 39 35 33 32 32 33 33 31 27 23 22 23 22 20 19 17 16 14 13 13 13 12
20 25 27 29 30 31 30 30 30 30 28 26 27 26 33 34 38 38 36 33 33 36 34 32 32 31 31 32 31 28 24 25 25 24 23 20 17 14 15 16 15 13 13
16 21 25 29 29 30 29 32 29 27 24 25 24 23 28 34 37 38 36 32 30 30 29 30 29 31 31 33 31 27 26 27 26 24 22 20 17 18 19 18 16 14 13
7 13 21 26 28 28 28 29 29 31 38 35 31 31 31 30 41 44 41 36 33 29 27 29 29 31 33 33 31 30 29 27 27 25 24 23 21 21 20 20 17 16 14
8 7 12 20 22 25 26 20 23 28 29 31 33 40 38 35 39 40 40 36 32 30 29 32 32 33 34 36 35 32 31 30 28 26 24 23 23 23 22 22 21 19 20
9 6 7 13 19 21 22 20 17 16 18 20 19 32 34 35 34 37 40 37 34 32 34 33 34 35 35 37 38 36 34 31 28 27 26 24 24 23 24 23 23 21 20
10 7 5 6 11 16 20 21 22 21 19 21 19 20 25 27 28 33 36 37 34 33 33 34 34 35 36 37 37 37 35 32 30 29 27 26 25 25 24 24 24 24 22
13 9 4 2 4 8 12 14 18 21 21 22 21 19 18 21 23 25 34 39 36 35 33 32 34 35 36 36 35 34 33 32 31 30 29 29 27 26 24 24 24 23 24
14 9 5 1 4 6 8 10 12 14 16 19 20 22 22 23 26 29 33 35 37 37 39 37 35 34 34 35 35 34 34 33 32 31 31 31 30 29 28 26 25 25 25
11 10 5 2 1 5 8 9 10 12 13 15 18 19 22 28 29 33 35 37 37 38 42 40 38 37 37 36 36 35 34 33 33 32 32 33 32 30 28 28 26 26 26
10 7 6 4 2 2 5 8 8 9 11 12 14 16 19 24 26 29 30 32 35 35 36 39 40 41 41 40 38 36 35 35 34 33 33 33 32 31 31 30 29 27 26
10 7 5 4 3 2 3 5 7 8 8 9 12 14 17 23 24 25 28 30 31 32 31 31 34 38 40 40 40 38 38 39 38 36 36 34 33 33 32 32 31 29 28
10 8 7 6 5 3 3 4 6 8 9 9 10 13 15 19 21 23 24 25 26 27 28 29 32 33 35 37 38 38 38 38 37 36 35 35 35 34 34 34 32 30 29
12 11 11 10 8 7 5 7 7 8 9 10 11 12 13 15 16 18 19 20 21 23 25 28 29 31 32 32 33 35 36 38 38 36 35 35 35 35 35 35 34 32 30
11 11 12 11 11 9 10 11 10 10 10 11 12 12 13 15 15 16 16 18 19 20 22 24 26 27 28 30 31 31 29 30 34 35 34 34 34 34 33 34 34 33 32
Wind_Direction
188 186 186 187 190 193 195 198 201 199 198 195 192 189 188 187 187 184 183 181 180 181 182 182 178 176 175 172 170 170 165 152 124 128 145 146 134 141 140 139 139 131 128
185 182 183 184 186 189 191 199 201 200 200 196 192 190 189 189 188 186 183 184 183 182 177 180 177 175 173 172 174 172 175 172 147 139 148 149 146 145 136 145 134 141 147
182 179 180 181 182 187 191 196 200 198 198 196 193 191 191 189 190 189 186 184 186 186 181 180 176 173 172 175 175 183 176 167 160 154 152 159 157 161 155 155 157 158 159
180 178 177 181 183 186 188 191 194 197 194 194 194 192 192 191 192 189 188 186 187 187 185 182 179 177 177 179 182 177 175 165 161 153 159 163 172 174 182 175 174 181 182
180 177 179 181 182 183 183 187 191 193 194 193 191 193 192 193 193 190 189 187 186 184 185 182 181 183 182 183 182 182 180 172 162 164 162 172 181 184 191 188 193 197 207
179 179 174 174 177 178 180 181 186 186 188 189 188 190 193 194 196 193 190 187 187 186 185 187 186 184 185 187 189 193 196 183 166 166 173 182 191 194 191 190 187 184 234
176 169 170 171 173 175 178 179 179 180 182 184 187 190 192 195 195 194 193 189 189 190 190 189 188 188 192 199 199 201 200 203 203 189 182 186 192 195 193 194 197 206 221
170 165 165 169 171 172 174 177 178 179 180 182 185 190 191 196 193 193 193 192 192 194 195 195 192 189 193 193 191 185 187 191 205 201 205 194 194 199 205 210 209 213 227
159 161 165 169 169 170 173 175 177 176 177 180 185 187 192 195 192 191 191 193 194 196 198 198 197 194 194 196 190 178 177 180 181 186 184 187 187 191 200 198 201 197 217
152 157 164 168 169 172 175 176 178 179 178 178 182 191 194 193 190 191 193 192 191 195 198 197 199 197 193 194 193 181 175 177 175 173 170 170 174 182 195 207 218 206 196
159 163 166 169 171 173 175 176 174 174 175 177 180 188 195 194 188 191 194 195 191 190 193 197 199 199 197 196 198 191 186 177 172 172 174 176 180 187 194 200 204 210 212
168 169 171 172 172 170 169 173 171 171 169 171 175 185 193 194 191 191 197 201 196 191 195 198 197 197 199 197 197 198 189 181 174 175 180 181 185 185 188 200 205 215 217
169 172 175 176 176 174 167 165 165 168 169 171 173 175 187 192 192 193 197 202 203 201 200 200 195 195 197 199 199 200 191 186 182 184 191 196 199 198 196 200 206 211 217
172 173 175 175 172 172 171 172 170 170 169 171 174 178 182 189 192 193 196 199 203 206 206 199 196 196 196 198 197 201 199 195 193 196 199 199 198 196 205 211 208 208 221
154 170 174 175 171 169 173 174 178 185 187 181 185 181 178 186 196 196 194 194 198 199 196 191 189 192 192 197 197 199 201 201 201 205 204 203 205 205 207 209 209 209 216
86 128 163 168 168 168 169 167 184 192 192 195 197 198 198 198 198 197 199 197 194 192 189 187 188 191 190 194 196 196 198 200 203 208 211 211 210 207 208 209 211 215 221
68 81 124 166 168 167 170 166 153 171 189 194 199 206 208 202 201 198 198 196 193 193 194 192 191 193 195 197 199 200 201 204 207 209 214 213 213 213 211 210 217 218 224
44 58 78 136 166 176 182 180 175 164 166 182 201 214 214 212 207 202 197 192 190 201 202 198 197 200 201 203 205 207 208 207 210 214 217 217 215 211 207 214 219 224 226
29 36 48 96 157 176 181 182 186 184 183 180 184 192 199 207 211 206 198 194 192 197 205 207 208 208 208 209 212 213 214 215 217 218 218 218 215 211 215 222 224 227 229
17 29 41 77 174 170 181 181 180 184 185 187 187 188 183 181 187 193 198 200 203 204 205 210 211 213 214 216 217 218 218 218 220 221 220 216 215 217 222 225 226 226 227
9 4 9 16 170 190 187 190 198 199 199 197 200 199 196 192 189 195 198 204 207 210 213 213 215 216 216 218 220 220 222 222 221 223 222 220 220 221 225 231 232 232 231
3 6 2 318 277 199 203 193 192 203 209 211 213 213 208 206 205 203 204 207 210 214 214 215 218 221 220 220 220 221 222 224 226 225 226 226 226 227 227 227 229 229 228
355 3 344 313 293 233 224 208 191 196 208 221 219 214 209 213 214 217 219 222 222 222 223 223 222 225 228 229 227 224 225 225 226 227 229 230 230 230 228 225 225 226 226
324 334 326 304 295 266 255 249 222 205 200 209 222 224 221 220 221 226 229 231 233 235 235 234 234 234 231 232 232 230 231 232 233 233 233 233 234 234 231 228 228 227 231
314 308 298 304 294 285 272 255 244 235 221 214 216 224 231 231 232 234 236 237 237 236 238 238 239 239 240 239 236 233 231 232 234 235 234 235 236 236 236 233 231 228 225
287 296 293 286 285 277 272 264 257 244 237 231 228 232 231 233 236 237 238 239 239 241 242 242 242 243 241 242 242 240 237 234 233 234 233 233 234 234 234 233 231 228 224
Height
688 697 706 713 722 729 736 743 750 757 764 770 775 781 786 791 795 798 802 805 808 812 815 818 821 824 828 833 838 841 844 845 850 859 863 867 869 871 872 874 876 878 880
681 691 699 706 715 723 731 738 745 752 759 766 772 778 783 788 792 796 800 803 806 810 812 817 820 824 829 833 838 841 844 846 849 857 863 867 870 873 875 876 878 880 881
674 684 693 701 708 717 725 732 739 747 755 762 768 773 779 784 789 793 797 801 805 808 811 814 819 823 829 834 837 841 845 847 851 854 861 866 871 874 876 878 879 881 882
667 676 685 694 702 711 719 727 734 742 749 757 763 769 776 780 786 790 795 799 803 807 811 814 818 822 827 833 837 840 844 847 851 857 863 867 870 874 876 877 880 881 881
661 670 679 690 699 707 715 722 731 738 745 752 759 766 772 777 781 786 792 796 801 806 811 815 818 822 828 832 835 839 842 846 851 857 861 866 870 872 874 876 878 880 881
658 668 677 686 695 702 711 718 727 734 741 749 756 762 767 773 778 783 789 793 798 803 808 814 817 822 828 833 835 839 841 842 848 855 859 862 867 870 872 874 877 880 881
658 666 674 682 691 698 707 715 722 730 738 745 751 757 764 769 775 781 786 791 796 800 806 811 816 821 827 832 836 838 842 844 847 847 853 858 862 865 869 872 875 877 878
657 664 672 681 688 695 703 711 719 726 733 740 747 753 759 765 772 778 784 789 794 798 802 808 813 818 824 829 834 837 841 844 848 849 854 857 861 865 867 870 873 874 875
657 663 670 678 686 692 700 707 715 722 730 737 743 749 755 762 769 775 780 786 791 796 801 806 811 816 821 827 832 835 840 843 846 850 852 856 860 863 866 868 870 872 873
657 662 669 676 682 689 697 704 712 719 726 733 740 746 751 758 765 772 777 782 788 793 799 804 809 814 819 824 829 832 836 840 843 848 851 854 857 860 863 865 868 869 871
659 663 669 675 681 687 695 702 709 717 724 731 738 744 750 756 762 768 774 779 783 790 795 800 805 811 817 822 827 830 832 837 842 846 850 852 855 858 860 863 865 868 869
660 664 669 674 680 686 693 700 707 714 722 729 736 742 748 754 760 766 771 777 781 786 791 797 802 807 813 819 825 830 833 837 840 844 848 850 853 855 858 861 863 865 867
662 665 669 674 679 684 691 698 705 711 718 726 733 739 745 751 758 763 769 775 780 785 789 794 800 805 811 818 822 827 831 834 837 840 844 847 850 854 857 858 860 863 865
663 665 669 673 678 684 690 696 702 709 716 722 729 736 741 748 754 760 766 773 778 783 788 793 798 803 808 814 820 824 828 830 833 837 841 845 848 851 853 856 858 860 862
666 667 670 673 678 684 689 694 700 705 708 715 721 728 735 742 745 752 759 766 773 779 786 790 794 799 804 810 815 819 824 828 831 835 838 841 844 847 850 852 855 857 859
669 671 673 675 679 683 688 695 700 705 710 715 719 723 730 736 742 750 757 764 771 777 781 785 789 794 798 804 809 814 819 823 827 831 834 837 840 843 846 849 851 852 854
674 675 677 679 680 684 689 693 699 706 711 715 720 724 730 733 741 748 755 762 768 773 775 779 783 789 793 799 804 808 813 818 822 826 829 832 835 838 841 844 848 849 850
680 680 681 682 684 686 690 693 697 701 707 713 719 723 729 734 739 745 752 761 765 769 772 775 779 784 789 795 799 803 808 812 816 820 824 827 830 833 836 839 843 845 847
686 685 686 686 687 690 691 694 697 701 705 710 716 721 727 732 738 743 748 752 757 762 768 772 776 781 785 790 795 799 803 806 810 814 817 821 824 828 831 835 838 840 843
691 690 691 692 692 693 694 697 700 703 706 710 714 718 722 729 734 739 744 748 752 757 762 767 771 776 780 785 789 793 797 800 803 808 811 814 818 822 825 829 832 835 837
695 694 695 696 696 696 696 698 700 703 707 710 714 718 720 723 727 732 736 741 746 750 755 762 766 770 774 779 782 785 790 794 797 801 805 809 812 816 820 823 827 830 832
697 698 699 700 700 700 701 701 702 704 707 710 713 716 720 723 725 729 733 737 741 745 750 755 760 764 767 771 775 779 782 787 791 794 798 802 806 810 813 817 820 823 826
702 700 701 703 703 701 703 704 703 705 707 709 712 714 717 720 723 727 731 735 738 742 747 751 754 757 762 765 769 772 775 778 782 787 791 795 799 802 806 809 812 816 819
703 701 702 704 703 702 702 703 703 705 706 708 711 714 716 718 721 724 728 732 735 739 742 746 748 751 753 757 761 765 769 773 777 781 785 788 792 796 800 803 806 809 813
701 701 702 702 701 701 701 704 705 705 706 707 710 713 715 718 720 722 725 728 731 733 736 739 742 744 746 749 752 756 761 765 769 774 778 782 785 789 792 795 799 803 806
703 701 701 701 701 699 701 703 703 704 706 707 707 710 713 715 718 720 722 724 727 729 731 733 735 738 740 742 745 749 753 756 760 765 771 775 778 781 785 788 792 796 799